Location: Tierz
(42.1336°N, 0.3549°W)
Time: 12:14:26
(UTC+00:00)

NOSS 3-4 (C) - Pass Details

Date: 29 October 2020
Orbit: 886 x 1326 km, 63.4° (Epoch: 06 November)

Event Time Altitude Azimuth Distance (km) Brightness Sun altitude
Rises 19:43:53 0° 324° (NW) 3,846 7.2 -31.1°
Reaches altitude 10° 19:46:25 10° 325° (NW) 2,948 6.5 -31.6°
Enters shadow 19:53:11 82° 348° (NNW) 1,192 3.8 -32.8°
